EW9807 Weather Reports


Display with metric or nautical units.
time (UTC)temp
F
wind
direction
speed
MPH
gust
MPH
rain 1hr
in
rain 24hr
in
rain mn
in
humidity
%
barometer
mb
20260502152055 59 321 0.0 2.0 0.00 0.04 0.04 79 1013.3
20260502151603 58 321 1.0 2.0 0.00 0.04 0.04 79 1013.3
20260502151051 58 321 1.0 2.0 0.00 0.04 0.04 77 1013.2
20260502150606 58 319 1.0 2.0 0.00 0.04 0.04 79 1013.1
20260502140107 54 158 0.0 1.0 0.00 0.04 0.04 91 1012.6
20260502130549 53 160 0.0 0.0 0.01 0.04 0.04 95 1011.8
20260502123602 53 160 0.0 0.0 0.00 0.03 0.03 95 1012.9
20260502123056 53 160 0.0 0.0 0.00 0.03 0.03 95 1013.5
20260502122602 53 160 0.0 0.0 0.00 0.03 0.03 95 1013.4
20260502122054 53 160 0.0 0.0 0.00 0.03 0.03 95 1013.0
20260502121602 53 160 0.0 0.0 0.01 0.03 0.03 95 1012.5
20260502121054 53 160 0.0 0.0 0.01 0.03 0.03 95 1012.3
20260502115554 53 160 0.0 0.0 0.01 0.03 0.03 95 1012.1
20260502115104 53 160 0.0 0.0 0.01 0.03 0.03 95 1012.3
20260502115006 53 160 0.0 0.0 0.01 0.03 0.03 95 1011.9
20260502114603 53 160 0.0 0.0 0.01 0.03 0.03 95 1012.8
20260502114054 53 160 0.0 0.0 0.01 0.03 0.03 95 1012.7
20260502113545 53 160 0.0 0.0 0.01 0.03 0.03 95 1012.1
20260502113058 54 160 0.0 0.0 0.01 0.03 0.03 95 1011.7
20260502112545 54 159 0.0 0.0 0.01 0.03 0.03 95 1011.5
20260502112051 54 159 0.0 0.0 0.01 0.03 0.03 95 1012.0
20260502111556 54 159 0.0 0.0 0.00 0.02 0.02 95 1011.9
20260502111048 54 159 0.0 0.0 0.00 0.02 0.02 95 1012.0
20260502110559 54 159 0.0 0.0 0.00 0.02 0.02 95 1012.3
20260502110117 54 159 0.0 0.0 0.00 0.02 0.02 95 1012.6
20260502105555 54 160 0.0 0.0 0.00 0.02 0.02 95 1012.7
20260502105047 54 159 0.0 0.0 0.00 0.02 0.02 95 1012.7
20260502104553 55 160 0.0 0.0 0.00 0.02 0.02 95 1012.7
20260502104100 55 159 0.0 1.0 0.00 0.02 0.02 95 1012.8
20260502103549 55 159 0.0 3.0 0.00 0.02 0.02 95 1013.1
20260502103057 55 158 1.0 3.0 0.00 0.02 0.02 95 1013.0
20260502102545 55 178 1.0 3.0 0.00 0.02 0.02 95 1012.7
20260502102053 55 40 0.0 1.0 0.00 0.02 0.02 95 1012.3
20260502101601 55 40 0.0 1.0 0.00 0.02 0.02 95 1011.8
20260502101050 55 40 0.0 1.0 0.00 0.02 0.02 95 1012.0
20260502100556 55 40 0.0 0.0 0.00 0.02 0.02 95 1011.6
20260502091106 56 40 0.0 0.0 0.00 0.02 0.02 95 1011.6
20260502090553 56 40 0.0 0.0 0.00 0.02 0.02 95 1011.6
20260502071103 57 40 0.0 0.0 0.01 0.01 0.01 94 1012.1
20260502070552 57 40 0.0 0.0 0.01 0.01 0.01 94 1012.3
20260502065102 58 40 0.0 0.0 0.00 0.00 0.00 93 1012.6
20260502064554 58 40 0.0 0.0 0.00 0.00 0.00 93 1012.7
20260502064058 58 40 0.0 0.0 0.00 0.00 0.00 93 1012.8
20260502063545 58 40 0.0 0.0 0.00 0.00 0.00 93 1012.8
20260502062603 58 40 0.0 1.0 0.00 0.00 0.00 93 1012.8
20260502062053 58 40 0.0 0.0 0.00 0.00 0.00 93 1012.8
20260502061602 58 40 0.0 1.0 0.00 0.00 0.00 92 1012.8
20260502061056 58 40 0.0 1.0 0.00 0.00 0.00 92 1012.9
20260502060049 58 40 0.0 0.0 0.00 0.00 0.00 92 1012.9
20260502055556 58 40 0.0 0.0 0.00 0.00 0.00 91 1013.0
20260502055100 58 40 0.0 0.0 0.00 0.00 0.00 91 1013.0
20260502054549 58 40 0.0 0.0 0.00 0.00 0.00 91 1012.9
20260502054102 58 40 0.0 0.0 0.00 0.00 0.00 90 1012.9
20260502053552 58 40 0.0 1.0 0.00 0.00 0.00 90 1012.9
20260502052546 58 40 0.0 0.0 0.00 0.00 0.00 89 1013.1
20260502052056 58 40 0.0 0.0 0.00 0.00 0.00 89 1013.0
20260502051544 59 40 0.0 1.0 0.00 0.00 0.00 89 1013.1
20260502051054 59 40 0.0 1.0 0.00 0.00 0.00 89 1013.0
20260502050601 59 40 0.0 0.0 0.00 0.00 0.00 89 1012.8
20260502050052 59 40 0.0 0.0 0.00 0.00 0.00 89 1012.7
20260502045557 59 40 0.0 1.0 0.00 0.00 0.00 89 1012.9
20260502045045 59 40 0.0 1.0 0.00 0.00 0.00 89 1013.0
20260502044549 59 40 0.0 1.0 0.00 0.00 0.00 88 1013.1
20260502044058 59 40 0.0 0.0 0.00 0.00 0.00 88 1013.0
20260502043547 59 40 0.0 0.0 0.00 0.00 0.00 88 1012.8
20260502043055 59 40 0.0 0.0 0.00 0.00 0.00 88 1012.9
20260502042600 59 40 0.0 0.0 0.00 0.00 0.00 88 1012.9
20260502042050 59 40 0.0 0.0 0.00 0.00 0.00 88 1012.9
20260502041603 59 40 0.0 1.0 0.00 0.00 0.00 88 1012.9
20260502041047 59 40 0.0 1.0 0.00 0.00 0.00 88 1013.1
20260502040555 59 40 0.0 1.0 0.00 0.00 0.00 88 1013.3
20260502040510 58 40 0.0 1.0 0.00 0.00 0.00 88 1012.8
20260502040115 59 40 0.0 0.0 0.00 0.00 0.00 88 1013.4
20260502035558 59 40 0.0 0.0 0.00 0.00 0.00 88 1013.5
20260502034557 59 40 0.0 0.0 0.00 0.00 0.00 87 1013.5
20260502034047 59 40 0.0 0.0 0.00 0.00 0.00 87 1013.5
20260502033556 59 40 0.0 0.0 0.00 0.00 0.00 87 1013.5
20260502033104 59 40 0.0 0.0 0.00 0.00 0.00 87 1013.7
20260502032547 59 40 0.0 0.0 0.00 0.00 0.00 87 1013.6
20260502032057 59 40 0.0 0.0 0.00 0.00 0.00 87 1013.5
20260502031549 59 40 0.0 0.0 0.00 0.00 0.00 87 1013.6
20260502031056 59 40 0.0 0.0 0.00 0.00 0.00 87 1013.7
20260502030544 59 40 0.0 0.0 0.00 0.00 0.00 87 1013.7
20260502030127 59 40 0.0 0.0 0.00 0.00 0.00 87 1013.7
20260502024045 59 40 0.0 0.0 0.00 0.00 0.00 86 1013.7
20260502023553 60 40 0.0 0.0 0.00 0.00 0.00 86 1013.7
20260502023103 60 40 0.0 0.0 0.00 0.00 0.00 86 1013.7
20260502022547 60 40 0.0 1.0 0.00 0.00 0.00 86 1013.7
20260502022058 60 40 0.0 1.0 0.00 0.00 0.00 86 1013.7
20260502021546 60 40 0.0 0.0 0.00 0.00 0.00 86 1013.8
20260502021055 60 40 0.0 1.0 0.00 0.00 0.00 86 1013.7
20260502020546 60 40 0.0 1.0 0.00 0.00 0.00 85 1013.7
20260502020056 60 40 0.0 1.0 0.00 0.00 0.00 85 1013.6
20260502015556 60 40 0.0 2.0 0.00 0.00 0.00 85 1013.5
20260502014602 60 6 0.0 0.0 0.00 0.00 0.00 85 1013.4
20260502014054 60 6 0.0 0.0 0.00 0.00 0.00 85 1013.3
20260502013547 60 6 0.0 0.0 0.00 0.00 0.00 85 1013.2
20260502013059 60 6 0.0 0.0 0.00 0.00 0.00 85 1013.2
20260502012550 60 6 0.0 0.0 0.00 0.00 0.00 85 1013.1
20260502012101 60 6 0.0 0.0 0.00 0.00 0.00 84 1013.0
20260502011553 60 6 0.0 0.0 0.00 0.00 0.00 84 1012.9
20260502011103 60 6 0.0 0.0 0.00 0.00 0.00 84 1012.9
20260502010552 60 6 0.0 0.0 0.00 0.00 0.00 83 1012.8
20260502010059 60 6 0.0 0.0 0.00 0.00 0.00 84 1012.8
20260502005546 60 6 0.0 0.0 0.00 0.00 0.00 83 1012.7
20260502005058 60 6 0.0 0.0 0.00 0.00 0.00 83 1012.7
20260502004551 60 6 0.0 0.0 0.00 0.00 0.00 82 1012.6
20260502004059 60 6 0.0 0.0 0.00 0.00 0.00 82 1012.6
20260502003549 60 6 0.0 0.0 0.00 0.00 0.00 83 1012.6
20260502003055 60 6 0.0 0.0 0.00 0.00 0.00 83 1012.7
20260502002602 61 6 0.0 1.0 0.00 0.00 0.00 82 1012.8
20260502002056 61 6 0.0 1.0 0.00 0.00 0.00 81 1012.7
20260502001548 61 6 0.0 0.0 0.00 0.00 0.00 81 1012.7
20260502001100 61 6 0.0 0.0 0.00 0.00 0.00 81 1012.6
20260502000109 61 6 0.0 0.0 0.00 0.00 0.00 80 1012.5
20260501235552 61 6 0.0 0.0 0.00 0.00 0.00 79 1012.5
20260501235058 61 6 0.0 0.0 0.00 0.00 0.00 79 1012.5
20260501234607 61 6 0.0 0.0 0.00 0.00 0.00 79 1012.5
20260501233101 62 6 0.0 0.0 0.00 0.00 0.00 76 1012.2
20260501232044 62 6 0.0 0.0 0.00 0.00 0.00 76 1012.4
20260501231049 62 6 0.0 0.0 0.00 0.00 0.00 77 1012.5
20260501230600 62 6 0.0 1.0 0.00 0.00 0.00 76 1012.5
20260501230053 62 6 0.0 1.0 0.00 0.00 0.00 76 1012.4
20260501225600 62 32 0.0 1.0 0.00 0.00 0.00 75 1012.3
20260501224547 62 32 0.0 0.0 0.00 0.00 0.00 74 1012.6
20260501224056 63 32 0.0 1.0 0.00 0.00 0.00 74 1012.6
20260501223602 63 32 0.0 1.0 0.00 0.00 0.00 72 1012.5
20260501223053 63 32 0.0 0.0 0.00 0.00 0.00 71 1012.3
20260501222604 63 32 0.0 1.0 0.00 0.00 0.00 70 1012.2
20260501222056 63 32 0.0 1.0 0.00 0.00 0.00 69 1011.9
20260501221547 63 32 0.0 1.0 0.00 0.00 0.00 70 1012.0
20260501221058 64 32 0.0 2.0 0.00 0.00 0.00 71 1011.8
20260501220549 64 181 1.0 3.0 0.00 0.00 0.00 68 1011.7
20260501215548 64 181 1.0 4.0 0.00 0.00 0.00 68 1012.0
20260501214103 63 169 0.0 2.0 0.00 0.00 0.00 71 1012.5
20260501213555 63 169 1.0 3.0 0.00 0.00 0.00 69 1012.5
20260501213105 63 169 1.0 3.0 0.00 0.00 0.00 68 1012.7
20260501212556 63 169 0.0 1.0 0.00 0.00 0.00 69 1012.7
20260501212048 63 169 0.0 1.0 0.00 0.00 0.00 70 1012.7
20260501211555 64 169 0.0 2.0 0.00 0.00 0.00 68 1012.6
20260501211047 63 169 0.0 1.0 0.00 0.00 0.00 68 1012.6
20260501210557 63 169 0.0 2.0 0.00 0.00 0.00 69 1012.5
20260501210121 63 169 1.0 2.0 0.00 0.00 0.00 67 1012.6
20260501205603 63 174 0.0 2.0 0.00 0.00 0.00 68 1012.7
20260501205058 63 174 0.0 2.0 0.00 0.00 0.00 70 1013.0
20260501204550 63 176 0.0 1.0 0.00 0.00 0.00 68 1013.2
20260501204045 63 176 0.0 1.0 0.00 0.00 0.00 70 1013.3
20260501203051 63 176 0.0 2.0 0.00 0.00 0.00 71 1013.5
20260501202602 62 176 1.0 2.0 0.00 0.00 0.00 68 1013.7
20260501202054 62 242 0.0 2.0 0.00 0.00 0.00 72 1013.8
20260501201101 62 242 1.0 2.0 0.00 0.00 0.00 68 1013.7
20260501200553 62 327 0.0 1.0 0.00 0.00 0.00 73 1013.8
20260501195548 62 25 0.0 1.0 0.00 0.00 0.00 71 1013.9
20260501194555 62 67 0.0 1.0 0.00 0.00 0.00 71 1013.6
20260501193559 62 171 0.0 1.0 0.00 0.00 0.00 70 1013.9
20260501193049 63 171 0.0 2.0 0.00 0.00 0.00 69 1013.9
20260501192559 62 171 0.0 3.0 0.00 0.00 0.00 66 1013.9
20260501191054 62 171 0.0 0.0 0.00 0.00 0.00 70 1014.0
20260501190604 62 171 0.0 0.0 0.00 0.00 0.00 69 1013.9
20260501190055 62 171 0.0 0.0 0.00 0.00 0.00 69 1013.8
20260501185604 62 171 0.0 0.0 0.00 0.00 0.00 69 1013.8
20260501185056 62 171 0.0 1.0 0.00 0.00 0.00 70 1013.9
20260501184058 62 171 0.0 0.0 0.00 0.00 0.00 70 1014.0
20260501183548 62 171 0.0 1.0 0.00 0.00 0.00 69 1014.0
20260501182551 62 171 0.0 1.0 0.00 0.00 0.00 67 1014.1
20260501182101 62 171 0.0 1.0 0.00 0.00 0.00 65 1014.1
20260501181552 62 171 0.0 0.0 0.00 0.00 0.00 68 1014.2
20260501181104 62 171 0.0 0.0 0.00 0.00 0.00 69 1014.2
20260501180556 62 171 0.0 0.0 0.00 0.00 0.00 69 1014.1
20260501180104 62 227 0.0 0.0 0.00 0.00 0.00 69 1014.1
20260501175551 62 227 0.0 0.0 0.00 0.00 0.00 69 1014.2
20260501175046 62 227 0.0 0.0 0.00 0.00 0.00 69 1014.2
20260501174601 62 227 0.0 1.0 0.00 0.00 0.00 68 1014.3
20260501174053 62 227 0.0 3.0 0.00 0.00 0.00 68 1014.2
20260501172547 63 270 0.0 2.0 0.00 0.00 0.00 66 1014.5
20260501172059 63 112 0.0 4.0 0.00 0.00 0.00 65 1014.5
20260501171104 62 78 0.0 1.0 0.00 0.00 0.00 66 1014.4
20260501170556 62 77 0.0 0.0 0.00 0.00 0.00 68 1014.3
20260501170119 62 77 0.0 0.0 0.00 0.00 0.00 68 1014.3
20260501165603 62 77 0.0 0.0 0.00 0.00 0.00 68 1014.3
20260501165054 62 74 0.0 0.0 0.00 0.00 0.00 66 1014.4
20260501164548 62 74 0.0 0.0 0.00 0.00 0.00 67 1014.4
20260501164057 62 74 0.0 0.0 0.00 0.00 0.00 66 1014.3
20260501163549 62 74 0.0 0.0 0.00 0.00 0.00 65 1014.4
20260501162606 62 74 0.0 0.0 0.00 0.00 0.00 64 1014.5
20260501162055 62 74 0.0 0.0 0.00 0.00 0.00 67 1014.5
20260501161545 62 297 0.0 1.0 0.00 0.00 0.00 70 1014.5
20260501161059 62 297 0.0 2.0 0.00 0.00 0.00 67 1014.5
20260501160553 62 297 0.0 2.0 0.00 0.00 0.00 67 1014.5
20260501155546 63 289 1.0 4.0 0.00 0.00 0.00 67 1014.5
20260501155057 63 98 2.0 4.0 0.00 0.00 0.00 64 1014.5
20260501154058 63 73 0.0 2.0 0.00 0.00 0.00 67 1014.4
20260501153546 63 111 0.0 3.0 0.00 0.00 0.00 66 1014.4